Tracking 28096 objects as of 27-Sep-2023
HD Live streaming from Space Station
objects crossing your sky now

NOAA 17 DEB

Track NOAA 17 DEB now!
10-day predictions


NORAD ID: 48725
Int'l Code: 2002-032BK
Perigee: 775.4 km
Apogee: 904.7 km
Inclination: 98.7 °
Period: 101.6 minutes
Semi major axis: 7211 km
RCS: Unknown
Launch date: June 24, 2002
Source: United States (US)
Launch site: AIR FORCE WESTERN TEST RANGE (AFWTR)

Note: This is SATELLITE DEBRIS
Your satellite tracking list
Your tracking list is empty




NASA's NSSDC Master Catalog

Two Line Element Set (TLE):
1 48725U 02032BJ  23269.77452461  .00015308  00000-0  72221-2 0  9994
2 48725  98.6923 198.6995 0089633  27.6598 332.9304 14.17770384130222
Source of the keplerian elements: AFSPC